Weather History for Fallon NAS, NV

Change the Weather History Date:

Saturday, March 23, 2013

  Actual Average Record
Temperature  
Mean Temperature 34 °F -  
Max Temperature 52 °F 61 °F 82 °F (1960)
Min Temperature 18 °F 31 °F 14 °F (1966)
Degree Days  
Heating Degree Days 30    
Moisture  
Dew Point 4 °F    
Average Humidity 31    
Maximum Humidity 54    
Minimum Humidity 14    
Precipitation  
Precipitation 0.00 in - - ()
Sea Level Pressure  
Sea Level Pressure 30.07 in    
Wind  
Wind Speed 3 mph (North)    
Max Wind Speed 9 mph    
Max Gust Speed -    
Visibility 10 miles    
Events      
Averages and records for this station are not official NWS values.
T = Trace of Precipitation, MM = Missing Value Source: NWS Daily Summary

Daily Weather History Graph

Daily Weather History Graph

Search for Another Location

Airport:

Trip Planner

Search our weather history database for the weather conditions in past years. The results will help you decide how hot, cold, wet, or windy it might be!

Date:

Astronomy

Mar. 23, 2013 Rise Set
Actual Time 6:52 AM PDT 7:10 PM PDT
Civil Twilight 6:26 AM PDT 7:37 PM PDT
Nautical Twilight 5:54 AM PDT 8:08 PM PDT
Astronomical Twilight 5:22 AM PDT 8:40 PM PDT
Moon 3:42 PM PDT (3/23) 4:31 AM PDT (3/23)
Length of Visible Light 13h 10m
Length of Day
12h 17m
Waxing Gibbous, 86% of the Moon is Illuminated
Mar 23
Waxing Gibbous
Mar 27
Full
Apr 2
Last Quarter
Apr 10
New
Apr 18
First Quarter

Hourly Weather History & Observations

Time (PDT) Temp. Windchill Dew Point Humidity Pressure Visibility Wind Dir Wind Speed Gust Speed Precip Events Conditions
12:56 AM 28.0 °F - 6.1 °F 39% 30.06 in 10.0 mi Calm Calm - N/A   Clear
1:56 AM 21.9 °F 11.7 °F 3.9 °F 46% 30.09 in 10.0 mi South 9.2 mph - N/A   Clear
2:56 AM 25.0 °F - 6.1 °F 45% 30.09 in 10.0 mi Calm Calm - N/A   Clear
3:56 AM 21.0 °F - 5.0 °F 50% 30.09 in 10.0 mi Calm Calm - N/A   Clear
4:56 AM 19.9 °F 14.9 °F 3.9 °F 50% 30.09 in 10.0 mi West 3.5 mph - N/A   Clear
5:56 AM 19.0 °F 11.1 °F 3.9 °F 52% 30.11 in 10.0 mi WNW 5.8 mph - N/A   Clear
6:56 AM 18.0 °F 12.7 °F 3.9 °F 54% 30.12 in 10.0 mi WNW 3.5 mph - N/A   Clear
7:56 AM 21.9 °F - 5.0 °F 48% 30.14 in 10.0 mi Calm Calm - N/A   Clear
8:56 AM 28.9 °F - 7.0 °F 40% 30.14 in 10.0 mi Calm Calm - N/A   Clear
9:01 AM 28.4 °F - 6.8 °F 40% 30.25 in 10.0 mi Calm Calm - N/A   Clear
9:56 AM 33.1 °F - 7.0 °F 34% 30.14 in 10.0 mi Calm Calm - N/A   Scattered Clouds
10:56 AM 36.0 °F - 7.0 °F 30% 30.12 in 10.0 mi Calm Calm - N/A   Scattered Clouds
11:56 AM 39.0 °F - 7.0 °F 27% 30.10 in 10.0 mi Calm Calm - N/A   Partly Cloudy
12:56 PM 43.0 °F 39.5 °F 7.0 °F 23% 30.08 in 10.0 mi NW 5.8 mph - N/A   Partly Cloudy
1:56 PM 46.9 °F - 7.0 °F 20% 30.04 in 10.0 mi North 6.9 mph - N/A   Scattered Clouds
2:56 PM 48.9 °F - 6.1 °F 18% 30.01 in 10.0 mi NNE 5.8 mph - N/A   Scattered Clouds
3:56 PM 51.1 °F - 3.0 °F 14% 29.99 in 10.0 mi ENE 6.9 mph - N/A   Scattered Clouds
4:56 PM 51.1 °F - 3.9 °F 15% 29.98 in 10.0 mi ENE 6.9 mph - N/A   Scattered Clouds
5:56 PM 51.1 °F - 3.0 °F 14% 29.98 in 10.0 mi Variable 6.9 mph - N/A   Mostly Cloudy
6:56 PM 48.0 °F - 1.9 °F 15% 29.98 in 10.0 mi NE 8.1 mph - N/A   Clear
7:56 PM 42.1 °F - 3.0 °F 20% 30.00 in 10.0 mi Calm Calm - N/A   Clear
8:56 PM 39.9 °F - 1.9 °F 20% 30.00 in 10.0 mi Calm Calm - N/A   Clear
9:56 PM 37.9 °F - 1.0 °F 21% 30.01 in 10.0 mi Calm Calm - N/A   Clear
10:56 PM 34.0 °F - -0.0 °F 24% 30.02 in 10.0 mi Calm Calm - N/A   Clear
11:56 PM 30.9 °F 26.2 °F 1.0 °F 28% 30.04 in 10.0 mi North 4.6 mph - N/A   Clear